VE3KSR Weather Reports


time (UTC)temp
F
wind
direction
speed
knots
gust
knots
rain 1hr
in
rain 24hr
in
rain mn
in
humidity
%
barometer
mb
20260503211826 46 0 0.0 0.0 5.64 0.00 0.00 84 1021.5
20260503211822 46 0 0.0 0.0 5.64 0.00 0.00 84 1021.5
20260503211327 45 0 0.0 0.0 5.64 0.00 0.00 83 1021.4
20260503211322 45 0 0.0 0.0 5.64 0.00 0.00 83 1021.4
20260503210824 45 0 0.0 0.0 5.64 0.00 0.00 80 1021.3
20260503210822 45 0 0.0 0.0 5.64 0.00 0.00 80 1021.3
20260503210324 45 0 0.0 0.0 5.64 0.00 0.00 85 1021.4
20260503210322 45 0 0.0 0.0 5.64 0.00 0.00 85 1021.4
20260503205826 45 0 0.0 0.0 5.64 0.00 0.00 92 1021.4
20260503205822 45 0 0.0 0.0 5.64 0.00 0.00 92 1021.4
20260503205324 45 229 1.7 9.6 5.64 0.00 0.00 93 1021.3
20260503205322 45 229 1.7 9.6 5.64 0.00 0.00 93 1021.3
20260503204823 45 273 9.6 13.9 5.64 0.00 0.00 93 1021.6
20260503204325 45 194 16.5 25.2 5.64 0.00 0.00 92 1021.5
20260503204323 45 194 16.5 25.2 5.64 0.00 0.00 92 1021.5
20260503203823 45 267 17.4 21.7 5.64 0.00 0.00 89 1021.9
20260503203323 45 271 19.1 26.1 5.64 0.00 0.00 85 1022.0
20260503202822 46 274 18.2 24.3 5.64 0.00 0.00 86 1022.0
20260503202323 46 136 22.6 29.5 5.64 0.00 0.00 82 1021.8
20260503201822 46 264 14.8 20.9 5.64 0.00 0.00 79 1021.9
20260503201322 46 281 21.7 28.7 5.64 0.00 0.00 78 1021.9
20260503200822 46 312 20.9 32.2 5.64 0.00 0.00 79 1021.9
20260503200322 47 284 21.7 31.3 5.64 0.00 0.00 79 1021.8
20260503195822 47 338 18.2 25.2 5.64 0.00 0.00 79 1022.1
20260503195323 47 260 14.8 19.1 5.64 0.00 0.00 79 1022.2
20260503194822 48 290 20.0 25.2 5.64 0.00 0.00 82 1022.1
20260503194322 48 66 20.0 26.1 5.64 0.00 0.00 80 1022.1
20260503193822 48 359 16.5 29.5 5.64 0.00 0.00 80 1022.2
20260503193322 50 359 0.0 1.7 5.64 0.00 0.00 74 1022.1
20260503192823 50 356 5.2 30.4 5.64 0.00 0.00 65 1022.2
20260503192323 50 210 20.9 30.4 5.64 0.00 0.00 65 1022.2
20260503191823 50 359 13.9 31.3 5.64 0.00 0.00 65 1022.1
20260503191322 50 4 15.6 25.2 5.64 0.00 0.00 64 1022.0
20260503190822 51 253 19.1 26.9 5.64 0.00 0.00 60 1022.2
20260503190322 52 339 3.5 27.8 5.64 0.00 0.00 56 1022.1
20260503185822 52 0 0.0 0.0 5.64 0.00 0.00 59 1022.1
20260503185322 52 304 0.0 2.6 5.64 0.00 0.00 58 1022.0
20260503184822 52 0 0.0 0.0 5.64 0.00 0.00 58 1022.3
20260503184322 52 0 0.0 0.0 5.64 0.00 0.00 59 1022.2
20260503183823 52 0 0.0 0.0 5.64 0.00 0.00 58 1022.3
20260503183322 52 0 0.0 0.0 5.64 0.00 0.00 59 1022.3
20260503182822 52 304 6.1 26.1 5.64 0.00 0.00 59 1022.5
20260503182324 52 256 15.6 30.4 5.64 0.00 0.00 57 1022.3
20260503181822 53 285 17.4 24.3 5.64 0.00 0.00 54 1022.6
20260503181322 53 59 16.5 24.3 5.64 0.00 0.00 51 1022.5
20260503180822 53 0 0.0 0.0 5.64 0.00 0.00 53 1022.7
20260503180322 53 20 17.4 26.9 5.64 0.00 0.00 51 1022.7
20260503175823 53 314 0.9 8.7 5.64 0.00 0.00 53 1022.7
20260503175322 53 194 15.6 21.7 5.64 0.00 0.00 52 1022.8
20260503174823 53 49 13.9 18.2 5.64 0.00 0.00 52 1023.1
20260503174322 53 359 0.9 7.8 5.64 0.00 0.00 56 1023.2
20260503173822 53 0 0.0 0.0 5.64 0.00 0.00 57 1023.3
20260503173323 52 0 0.0 0.0 5.64 0.00 0.00 57 1023.5
20260503172822 51 0 0.0 0.0 5.64 0.00 0.00 54 1023.6
20260503171323 51 0 0.0 0.0 5.64 0.00 0.00 56 1023.8
20260503170822 51 0 0.0 0.0 5.64 0.00 0.00 55 1023.8
20260503170323 51 0 0.0 0.0 5.64 0.00 0.00 55 1023.9
20260503150823 22 315 0.0 2.6 5.64 0.00 0.00 58 1025.5
20260503150323 43 0 0.0 0.0 5.64 0.00 0.00 54 1025.5
20260503131324 0 0 0.0 0.0 5.64 0.00 0.00 80 1026.9
20260503130823 0 0 0.0 0.0 5.64 0.00 0.00 80 1026.9
20260503130323 0 0 0.0 0.0 5.64 0.00 0.00 82 1026.9
20260503110823 0 0 0.0 0.0 5.64 0.00 0.00 86 1026.3
20260503110323 0 277 7.0 13.0 5.64 0.00 0.00 86 1026.2
20260503090324 -55 0 0.0 0.0 5.64 0.00 0.00 85 1027.1
20260503081324 -55 0 0.0 0.0 5.64 0.00 0.00 83 1027.3
20260503080824 -55 0 0.0 0.0 5.64 0.00 0.00 82 1027.4
20260503080324 -55 0 0.0 0.0 5.64 0.00 0.00 81 1027.2
20260503072824 -55 0 0.0 0.0 5.64 0.00 0.00 78 1027.1
20260503072324 -55 0 0.0 0.0 5.64 0.00 0.00 77 1027.1
20260503071824 -55 0 0.0 0.0 5.64 0.00 0.00 77 1027.1
20260503071324 -55 0 0.0 0.0 5.64 0.00 0.00 76 1027.1
20260503070824 -55 0 0.0 0.0 5.64 0.00 0.00 75 1027.1
20260503070324 -55 0 0.0 0.0 5.64 0.00 0.00 74 1027.1
20260503060324 0 0 0.0 0.0 5.64 0.00 0.00 68 1027.6
20260503054824 -55 0 0.0 0.0 5.64 0.00 0.00 67 1027.6
20260503054324 -55 0 0.0 0.0 5.64 0.00 0.00 67 1027.7
20260503053824 -55 0 0.0 0.0 5.64 0.00 0.00 65 1027.6
20260503053324 -55 0 0.0 0.0 5.64 0.00 0.00 65 1027.7
20260503052824 -55 0 0.0 0.0 5.64 0.00 0.00 64 1027.7
20260503052324 -55 0 0.0 0.0 5.64 0.00 0.00 63 1028.0
20260503051824 -55 0 0.0 0.0 5.64 0.00 0.00 63 1028.0
20260503051324 -55 0 0.0 0.0 5.64 0.00 0.00 63 1027.9
20260503050824 -55 0 0.0 0.0 5.64 0.00 0.00 62 1028.0
20260503050326 -55 0 0.0 0.0 5.64 0.00 0.00 62 1027.9
20260503045824 -55 0 0.0 0.0 5.64 0.00 0.00 60 1027.9
20260503045325 -55 0 0.0 0.0 5.64 0.00 0.00 60 1027.9
20260503044824 -55 0 0.0 0.0 5.64 0.00 0.00 60 1028.0
20260503044324 -55 0 0.0 0.0 5.64 0.00 0.00 60 1028.1
20260503043824 -54 0 0.0 0.0 5.64 0.00 0.00 59 1028.0
20260503043325 -55 0 0.0 0.0 5.64 0.00 0.00 61 1028.1
20260503042824 -54 0 0.0 0.0 5.64 0.00 0.00 60 1028.1
20260503042325 -55 228 0.9 4.3 5.64 0.00 0.00 60 1028.2
20260503041826 -54 0 0.0 0.0 5.64 0.00 0.00 60 1028.2
20260503041325 -55 0 0.0 0.0 5.64 0.00 0.00 61 1028.2
20260503040824 -55 0 0.0 0.0 5.64 0.00 0.00 61 1028.1
20260503040324 -55 297 0.9 6.1 5.64 0.00 0.00 63 1028.2
20260503035824 -52 0 0.0 0.0 5.64 0.00 0.00 61 1028.3
20260503035324 -55 0 0.0 0.0 5.64 0.00 0.00 62 1028.2
20260503034824 -55 0 0.0 0.0 5.64 0.00 0.00 63 1028.2
20260503034325 -55 274 4.3 12.2 5.64 0.00 0.00 62 1028.2
20260503033824 -55 0 0.0 0.0 5.64 0.00 0.00 62 1028.2
20260503033326 -55 0 0.0 0.0 5.64 0.00 0.00 62 1028.2
20260503032824 -46 0 0.0 0.0 5.64 0.00 0.00 61 1028.3
20260503032324 -55 0 0.0 0.0 5.64 0.00 0.00 61 1028.3
20260503031824 -55 0 0.0 0.0 5.64 0.00 0.00 60 1028.3
20260503031324 -49 0 0.0 0.0 5.64 0.00 0.00 60 1028.3
20260503030824 -55 0 0.0 0.0 5.64 0.00 0.00 60 1028.3
20260503030325 -55 143 4.3 8.7 5.64 0.00 0.00 60 1028.3
20260503025825 -55 0 0.0 0.0 5.64 0.00 0.00 60 1028.4
20260503025325 -55 0 0.0 0.0 5.64 0.00 0.00 60 1028.4
20260503024825 -55 0 0.0 0.0 5.64 0.00 0.00 60 1028.4
20260503024325 -55 0 0.0 0.0 5.64 0.00 0.00 60 1028.4
20260503023825 -55 0 0.0 0.0 5.64 0.00 0.00 60 1028.5
20260503023325 -55 0 0.0 0.0 5.64 0.00 0.00 60 1028.5
20260503022825 0 0 0.0 0.0 5.64 0.00 0.00 59 1028.6
20260503022325 -55 0 0.0 0.0 5.64 0.00 0.00 59 1028.6
20260503021825 -55 0 0.0 0.0 5.64 0.00 0.00 59 1028.6
20260503021325 -55 0 0.0 0.0 5.64 0.00 0.00 59 1028.7
20260503020825 -55 0 0.0 0.0 5.64 0.00 0.00 58 1028.5
20260503020325 -55 0 0.0 0.0 5.64 0.00 0.00 58 1028.5
20260503015825 -55 0 0.0 0.0 5.64 0.00 0.00 58 1028.5
20260503015325 -55 0 0.0 0.0 5.64 0.00 0.00 58 1028.4
20260503014825 -55 0 0.0 0.0 5.64 0.00 0.00 58 1028.4
20260503014325 -55 0 0.0 0.0 5.64 0.00 0.00 57 1028.4
20260503013825 -55 0 0.0 0.0 5.64 0.00 0.00 57 1028.4
20260503013325 -55 0 0.0 0.0 5.64 0.00 0.00 58 1028.5
20260503012826 -55 0 0.0 0.0 5.64 0.00 0.00 59 1028.5
20260503012325 -55 0 0.0 0.0 5.64 0.00 0.00 58 1028.4
20260503011825 -55 0 0.0 0.0 5.64 0.00 0.00 58 1028.4
20260503011325 -55 0 0.0 0.0 5.64 0.00 0.00 57 1028.3
20260503010825 -55 0 0.0 0.0 5.64 0.00 0.00 57 1028.3
20260503010325 -55 0 0.0 0.0 5.64 0.00 0.00 57 1028.3
20260503005825 -55 0 0.0 0.0 5.64 0.00 0.00 57 1028.3
20260503005325 -55 0 0.0 0.0 5.64 0.00 0.00 57 1028.1
20260503004825 -55 0 0.0 0.0 5.64 0.00 0.00 56 1028.1
20260503004325 -55 0 0.0 0.0 5.64 0.00 0.00 57 1028.1
20260503003825 -55 0 0.0 0.0 5.64 0.00 0.00 57 1028.0
20260503003325 -55 0 0.0 0.0 5.64 0.00 0.00 56 1027.7
20260503002825 -55 0 0.0 0.0 5.64 0.00 0.00 57 1027.9
20260503002325 -54 0 0.0 0.0 5.64 0.00 0.00 56 1027.9
20260503001825 -47 0 0.0 0.0 5.64 0.00 0.00 57 1027.9
20260503001325 -44 0 0.0 0.0 5.64 0.00 0.00 57 1027.9
20260503000825 -45 0 0.0 0.0 5.64 0.00 0.00 56 1028.0
20260503000325 -42 0 0.0 0.0 5.64 0.00 0.00 56 1028.0
20260502235825 -44 0 0.0 0.0 5.64 0.00 0.00 56 1027.9
20260502235325 -45 0 0.0 0.0 5.64 0.00 0.00 55 1027.9
20260502234825 -52 0 0.0 0.0 5.64 0.00 0.00 54 1027.9
20260502234325 -34 0 0.0 0.0 5.64 0.00 0.00 54 1027.9
20260502233825 -41 0 0.0 0.0 5.64 0.00 0.00 54 1027.9
20260502233325 -31 0 0.0 0.0 5.64 0.00 0.00 54 1027.9
20260502232825 -42 0 0.0 0.0 5.64 0.00 0.00 54 1027.9
20260502232325 -43 0 0.0 0.0 5.64 0.00 0.00 55 1027.9
20260502231825 -45 0 0.0 0.0 5.64 0.00 0.00 54 1027.6
20260502231325 -37 0 0.0 0.0 5.64 0.00 0.00 53 1027.9
20260502230825 -38 0 0.0 0.0 5.64 0.00 0.00 56 1027.9
20260502230325 -36 0 0.0 0.0 5.64 0.00 0.00 57 1027.9
20260502225825 -36 0 0.0 0.0 5.64 0.00 0.00 53 1027.9
20260502225325 -31 0 0.0 0.0 5.64 0.00 0.00 57 1028.0
20260502224825 -35 0 0.0 0.0 5.64 0.00 0.00 60 1028.0
20260502224325 -43 0 0.0 0.0 5.64 0.00 0.00 59 1028.1
20260502223825 -39 0 0.0 0.0 5.64 0.00 0.00 59 1028.1
20260502223326 -38 0 0.0 0.0 5.64 0.00 0.00 58 1028.0
20260502222827 -40 0 0.0 0.0 5.64 0.00 0.00 60 1028.2
20260502222325 -37 0 0.0 0.0 5.64 0.00 0.00 57 1028.1
20260502221825 -41 0 0.0 0.0 5.64 0.00 0.00 59 1028.1
20260502221325 -36 0 0.0 0.0 5.64 0.00 0.00 59 1028.2
20260502220825 -40 0 0.0 0.0 5.64 0.00 0.00 60 1028.1
20260502220326 -40 0 0.0 0.0 5.64 0.00 0.00 60 1028.1
20260502215825 -40 0 0.0 0.0 5.64 0.00 0.00 60 1028.2
20260502215325 -37 0 0.0 0.0 5.64 0.00 0.00 62 1028.2
20260502214825 -32 0 0.0 0.0 5.64 0.00 0.00 63 1028.3
20260502214325 -37 0 0.0 0.0 5.64 0.00 0.00 64 1028.3
20260502213825 -37 304 0.0 2.6 5.64 0.00 0.00 62 1028.2
20260502213325 -33 0 0.0 0.0 5.64 0.00 0.00 65 1028.1
20260502212825 -31 0 0.0 0.0 5.64 0.00 0.00 65 1028.0
20260502212327 -41 0 0.0 0.0 5.64 0.00 0.00 64 1028.3